Terug naar catalogus

STARLINK-35895

ActiefCommunicatieVLEO
NORAD 66354·PAYLOAD·🇺🇸 United States

Gelanceerd Nov 6, 2025 vanaf Vandenberg Space Force Base

Loading…

Volgende Passages (komende 24 uur)

TLE

VersSource: CelesTrak SupGP

Epoch: Sep 15, 2026, 03:30 UTC

1 66354C 25254G   26258.14631944 -.00025733  00000+0 -78115-3 0  2581
2 66354  53.1586  70.8535 0001217  97.2595 310.0087 15.33549752    14

Volg STARLINK-35895 in realtime met AllMySat

Download on the App Store